This demonstration page uses our WeatherBlox Daily Observations layout. Learn more.

Left ArrowRight Arrow

Hourly Observations for April 3, 2019

Temp ( °F °C ) Dew Point ( °F °C ) Humidity (%) Winds ( mph kmh ) Pressure ( in mb ) Visibility ( mi km ) Precip ( " mm )
12:53 am 00:53 Clear 58 14.4 41 5 53 53 SE 15 24 29.84 1011 10 16 0.00 0.00
1:53 am 01:53 Clear 56 13.3 41 5 57 57 SE 16 26 29.82 1010 10 16 0.00 0.00
2:53 am 02:53 Clear 55 12.8 41 5 59 59 SE 14 22 29.82 1010 10 16 0.00 0.00
3:53 am 03:53 Clear 54 12.2 42 5.6 64 64 SE 15 24 29.81 1010 10 16 0.00 0.00
4:53 am 04:53 Clear 53 11.7 44 6.7 72 72 SE 13 20 29.81 1010 10 16 0.00 0.00
5:53 am 05:53 Clear 51 10.6 44 6.7 77 77 SE 10 17 29.82 1010 10 16 0.00 0.00
6:53 am 06:53 Clear 50 10 45 7.2 83 83 SE 9 15 29.85 1011 10 16 0.00 0.00
7:53 am 07:53 Sunny 49 9.4 46 7.8 90 90 SE 7 11 29.88 1012 10 16 0.00 0.00
8:53 am 08:53 Sunny 54 12.2 48 8.9 80 80 SSE 15 24 29.89 1012 10 16 0.00 0.00
9:53 am 09:53 Sunny 60 15.6 48 8.9 65 65 SSE 12 19 29.89 1012 10 16 0.00 0.00
10:53 am 10:53 Sunny 67 19.4 44 6.7 44 44 S 6 9 29.89 1012 10 16 0.00 0.00
11:53 am 11:53 undefined 75 23.9 34 1.1 22 22 undefined N/A 29.87 1011 N/A 0.00 0.00
12:53 pm 12:53 Sunny 78 25.6 29 -1.7 16 16 WSW 9 15 29.84 1010 10 16 0.00 0.00
1:53 pm 13:53 Sunny 80 26.7 24 -4.4 13 13 VRB 6 9 29.80 1009 10 16 0.00 0.00
2:53 pm 14:53 Sunny 83 28.3 19 -7.2 9 9 WSW 16 26 29.76 1008 10 16 0.00 0.00
3:53 pm 15:53 Sunny 85 29.4 17 -8.3 8 8 WSW 25 41 29.72 1007 10 16 0.00 0.00
4:53 pm 16:53 Sunny 85 29.4 16 -8.9 7 7 WSW 23 37 29.69 1005 10 16 0.00 0.00
5:53 pm 17:53 Sunny 83 28.3 15 -9.4 8 8 WSW 21 33 29.69 1006 10 16 0.00 0.00
6:53 pm 18:53 Sunny 83 28.3 12 -11.1 7 7 SW 16 26 29.69 1005 10 16 0.00 0.00
7:53 pm 19:53 Sunny 80 26.7 13 -10.6 8 8 W 10 17 29.71 1006 10 16 0.00 0.00
8:53 pm 20:53 Clear 71 21.7 17 -8.3 13 13 NW 8 13 29.74 1007 10 16 0.00 0.00
9:53 pm 21:53 Clear 65 18.3 20 -6.7 18 18 N 8 13 29.77 1008 10 16 0.00 0.00
10:53 pm 22:53 Clear 60 15.6 27 -2.8 28 28 SE 6 9 29.80 1009 10 16 0.00 0.00
11:53 pm 23:53 Clear 60 15.6 46 7.8 60 60 ESE 8 13 29.81 1010 10 16 0.00 0.00

Powered by AerisWeather